User: anonymous   Login
Location: Emblem
(62.4273°N, 6.4710°E)
Time: 12:15:30
(UTC+01:00)
Language:

Tiros 1 despin weight - Orbit

View from above orbital plane
View from above orbital plane
View from above satellite
View from above satellite

Ground track
Ground track

The orbit data is extracted from the following two-line orbital elements,

1   115U 60002D   23030.92402072  .00001967  00000-0  25059-3 0  9996
2   115  48.1668 346.7619 0033310 152.3289 207.9406 14.85257723355182
Epoch (UTC): 30 January 2023 22:10:35
Eccentricity: 0.0033310
inclination: 48.1668°
perigee height: 589 km
apogee height: 636 km
right ascension of ascending node: 346.7619°
argument of perigee: 152.3289°
revolutions per day: 14.85257723
mean anomaly at epoch: 207.9406°
orbit number at epoch: 35518

The dashed part of the orbit path shows where the satellite is in the earth's shadow,  

DLR